[[{"header":{"parameterUnit":"m.s-1","parameterCategory":1,"la1":30.2991,"la2":30.254,"lo1":-89.0895,"lo2":-89.0444,"dy":0.0017,"dx":0.0017,"nx":28,"ny":28,"refTime":"2024-08-05T03:00:00:Z","depth":0,"parameterNumber":2,"parameterNumberName":"U-component_of_WINDS"},"data":[0,0,0,0,0,0,0,0,0,0,0,0,0,0,0,0,0,0,0,0,0,0,0,0,0,0,0,0,0,0,0,0,0,0,0,0,0,0,0,0,0,0,0,0,0,0,0,0,0,0,0,0,0,0,0,0,0,0,-0.7767,-0.7768,0,-0.789,-0.7892,-0.7893,-0.7898,-0.7896,-0.7895,-0.7893,-0.8023,-0.8028,-0.8033,0,0,0,0,0,0,0,0,0,0,0,0,0,-0.7539,-0.7543,-0.7767,-0.7768,-0.777,-0.789,-0.7892,-0.7893,-0.7898,-0.7896,-0.7894,-0.7893,-0.8022,-0.8027,-0.8033,0,0,0,0,0,0,0,0,0,0,0,0,0,-0.7648,-0.7544,-0.7767,-0.7786,-0.779,-0.789,-0.7892,-0.7894,-0.7898,-0.7896,-0.7894,-0.7892,-0.802,-0.8027,-0.8034,-0.8124,0,0,-0.8056,-0.8059,0,0,0,0,0,0,0,0,-0.7641,-0.7656,-0.7782,-0.7785,-0.7789,-0.7876,-0.7859,-0.7971,-0.7899,-0.7857,-0.7893,-0.7891,-0.7976,-0.7987,-0.8015,-0.813,-0.8135,-0.8057,-0.8061,-0.8064,-0.8067,0,0,0,0,0,0,0,-0.7634,-0.7651,-0.7816,-0.7784,-0.7788,-0.7791,-0.7803,-0.788,-0.7928,-0.7861,-0.7861,-0.7876,-0.7978,-0.8008,-0.8018,-0.8137,-0.8057,-0.8063,-0.8068,-0.8071,-0.8333,-0.8336,0,0,0,0,0,0,-0.7622,-0.7644,-0.7812,-0.7819,-0.7708,-0.7796,-0.7811,-0.785,-0.7927,-0.7936,-0.7877,-0.7875,-0.7997,-0.801,-0.8023,-0.8134,-0.8064,-0.8071,-0.8075,-0.8331,-0.8334,-0.8337,0,0,0,0,0,0,-0.7617,-0.7637,-0.7807,-0.7732,-0.7754,-0.7803,-0.7847,-0.7854,-0.7884,-0.794,-0.7949,-0.7899,-0.7996,-0.8013,-0.8099,-0.8139,-0.8074,-0.8081,-0.8327,-0.8332,-0.8335,-0.8356,0,0,0,0,0,0,-0.761,-0.7635,-0.7669,-0.7733,-0.7758,-0.788,-0.785,-0.7858,-0.7897,-0.7895,-0.7963,-0.7972,-0.7995,-0.8088,-0.8106,-0.8148,-0.8087,-0.8324,-0.8329,-0.8334,-0.8352,-0.8361,-0.8368,0,0,0,0,0,-0.7602,-0.767,-0.767,-0.7691,-0.7801,-0.7882,-0.7896,-0.7921,-0.79,-0.7935,-0.797,-0.797,-0.8131,-0.8097,-0.8117,-0.8161,-0.8322,-0.8328,-0.8334,-0.8349,-0.8359,-0.8367,0,0,0,0,0,0,-0.7611,-0.7679,-0.768,-0.7771,-0.782,-0.7882,-0.7927,-0.793,-0.7988,-0.7984,-0.8013,-0.8029,-0.8114,-0.8146,-0.8107,-0.8253,-0.8224,-0.8234,-0.8229,-0.8239,-0.8246,-0.8237,-0.8093,0,0,0,0,0,-0.7623,-0.7682,-0.7739,-0.7813,-0.7838,-0.7878,-0.7914,-0.7929,-0.7982,-0.8003,-0.8045,-0.8098,-0.8161,-0.8201,-0.8262,-0.8357,-0.8372,-0.8397,-0.8405,-0.8411,-0.842,-0.8474,-0.8486,-0.8356,-0.8356,-0.8356,0,0,-0.7649,-0.7694,-0.7729,-0.7816,-0.7856,-0.7918,-0.7896,-0.7962,-0.8008,-0.8014,-0.8098,-0.813,-0.8191,-0.8282,-0.8324,-0.8311,-0.8459,-0.8418,-0.8423,-0.8429,-0.8481,-0.8493,-0.8504,-0.836,-0.8359,-0.8358,0,0,-0.7729,-0.7768,-0.7835,-0.7875,-0.7936,-0.7962,-0.7978,-0.804,-0.8062,-0.8146,-0.8152,-0.8208,-0.8315,-0.8358,-0.8394,-0.849,-0.8492,-0.8509,-0.8549,-0.8601,-0.8612,-0.8621,-0.8657,-0.8669,-0.8518,-0.8518,-0.8518,0,-0.7755,-0.7846,-0.7869,-0.7935,-0.7974,-0.798,-0.8049,-0.8088,-0.8165,-0.8193,-0.8177,-0.8311,-0.8353,-0.8454,-0.8478,-0.8506,-0.8527,-0.8502,-0.8608,-0.8618,-0.8627,-0.8661,-0.8674,-0.8519,-0.8519,-0.8519,-0.8519,0,-0.7875,-0.7939,-0.7986,-0.806,-0.8104,-0.8171,-0.8205,-0.8247,-0.8257,-0.8286,-0.8372,-0.8421,-0.8493,-0.8518,-0.8529,-0.8622,-0.8612,-0.8602,-0.8574,-0.864,-0.8673,-0.8686,-0.8522,-0.8521,-0.8521,-0.852,0,0,-0.7965,-0.805,-0.8067,-0.8101,-0.8168,-0.8219,-0.8287,-0.8355,-0.8391,-0.8445,-0.8503,-0.8593,-0.8585,-0.8625,-0.8642,-0.8687,-0.8762,-0.8672,-0.8674,-0.8688,-0.8869,-0.8877,-0.8891,-0.8763,-0.8766,-0.8768,-0.8864,0,-0.8053,-0.8172,-0.8195,-0.8299,-0.8359,-0.8366,-0.8426,-0.8474,-0.8503,-0.8559,-0.859,-0.8654,-0.8637,-0.8662,-0.8707,-0.8743,-0.8799,-0.8736,-0.882,-0.8822,-0.8805,-0.8908,-0.8917,-0.9006,-0.8877,-0.8879,-0.888,0,-0.8171,-0.8227,-0.8337,-0.8397,-0.8423,-0.8476,-0.8541,-0.8594,-0.8649,-0.8667,-0.8713,-0.8724,-0.8796,-0.8763,-0.8864,-0.8821,-0.8857,-0.8879,-0.8884,-0.8893,-0.8856,-0.8922,-0.9034,-0.9048,-0.8901,-0.8899,-0.8898,0,-0.8227,-0.8329,-0.8409,-0.8438,-0.8509,-0.8546,-0.8578,-0.8631,-0.8671,-0.8729,-0.8755,-0.882,-0.8856,-0.8907,-0.8936,-0.8909,-0.9035,-0.9005,-0.9053,-0.9053,-0.9081,-0.9079,-0.9201,-0.9101,-0.9101,-0.9101,-0.91,0,-0.8324,-0.8391,-0.8435,-0.8484,-0.856,-0.8586,-0.8661,-0.8693,-0.874,-0.8797,-0.8807,-0.886,-0.8894,-0.8952,-0.8975,-0.9056,-0.9072,-0.9089,-0.9095,-0.9089,-0.9087,-0.9114,-0.9109,-0.9104,-0.9103,-0.9103,-0.9102,0,-0.8399,-0.8431,-0.8518,-0.8579,-0.8595,-0.8649,-0.8702,-0.875,-0.8778,-0.885,-0.8868,-0.8913,-0.8982,-0.9015,-0.9101,-0.9117,-0.9209,-0.921,-0.919,-0.9192,-0.9239,-0.9235,-0.9384,-0.9406,-0.929,-0.9291,-0.9292,0,-0.8459,-0.8511,-0.8577,-0.8615,-0.8648,-0.8709,-0.8749,-0.8777,-0.8819,-0.8886,-0.8927,-0.8996,-0.9053,-0.9164,-0.9205,-0.9271,-0.9275,-0.9322,-0.9285,-0.9278,-0.9277,-0.9274,-0.928,-0.9329,-0.9331,-0.9331,-0.9332,0,-0.8563,-0.8576,-0.8634,-0.8697,-0.8745,-0.8797,-0.8848,-0.8878,-0.8914,-0.8962,-0.9032,-0.9076,-0.9163,-0.9233,-0.9301,-0.9336,-0.9341,-0.9343,-0.9359,-0.9354,-0.9341,-0.935,-0.921,-0.934,-0.934,-0.9339,-0.9338,-0.9338,-0.8634,-0.8681,-0.8735,-0.8799,-0.884,-0.8887,-0.8936,-0.897,-0.9028,-0.9101,-0.9114,-0.9189,-0.9244,-0.9337,-0.9374,-0.9434,-0.9423,-0.9444,-0.945,-0.9455,-0.9458,-0.933,-0.9446,-0.9446,-0.9446,-0.9446,-0.9445,0,-0.874,-0.8774,-0.8833,-0.8903,-0.8954,-0.8953,-0.9009,-0.9052,-0.9117,-0.9168,-0.9223,-0.9305,-0.9372,-0.9418,-0.9486,-0.9526,-0.953,-0.9543,-0.9541,-0.9549,-0.9463,-0.9444,-0.9538,-0.9538,-0.9538,-0.9538,-0.9538,-0.9538,-0.8801,-0.888,-0.89,-0.9,-0.9035,-0.9108,-0.914,-0.9184,-0.9225,-0.9315,-0.937,-0.9399,-0.9448,-0.9521,-0.9583,-0.9595,-0.962,-0.9634,-0.9646,-0.9565,-0.9555,-0.9546,-0.9528,-0.9639,-0.9639,-0.9727,-0.9728,-0.9728]},{"header":{"parameterUnit":"m.s-1","parameterCategory":1,"la1":30.2991,"la2":30.254,"lo1":-89.0895,"lo2":-89.0444,"dy":0.0017,"dx":0.0017,"nx":28,"ny":28,"refTime":"2024-08-05T03:00:00:Z","depth":0,"parameterNumber":3,"parameterNumberName":"V-component_of_WINDS"},"data":[0,0,0,0,0,0,0,0,0,0,0,0,0,0,0,0,0,0,0,0,0,0,0,0,0,0,0,0,0,0,0,0,0,0,0,0,0,0,0,0,0,0,0,0,0,0,0,0,0,0,0,0,0,0,0,0,0,0,-2.6638,-2.6639,0,-2.6673,-2.6674,-2.6674,-2.6625,-2.6623,-2.6621,-2.662,-2.6652,-2.6655,-2.6657,0,0,0,0,0,0,0,0,0,0,0,0,0,-2.6525,-2.6527,-2.6638,-2.6639,-2.6639,-2.6673,-2.6674,-2.6674,-2.6625,-2.6623,-2.6621,-2.6619,-2.6651,-2.6654,-2.6657,0,0,0,0,0,0,0,0,0,0,0,0,0,-2.6569,-2.6528,-2.6638,-2.6619,-2.6618,-2.6673,-2.6674,-2.6674,-2.6626,-2.6623,-2.662,-2.6618,-2.665,-2.6654,-2.6658,-2.6733,0,0,-2.6669,-2.6671,0,0,0,0,0,0,0,0,-2.6566,-2.6573,-2.6621,-2.662,-2.6619,-2.6642,-2.6646,-2.6694,-2.6626,-2.6622,-2.662,-2.6617,-2.6651,-2.6654,-2.6666,-2.6734,-2.6736,-2.6669,-2.6672,-2.6673,-2.6674,0,0,0,0,0,0,0,-2.6563,-2.6571,-2.6652,-2.6622,-2.6621,-2.6607,-2.6611,-2.6655,-2.6651,-2.6623,-2.6619,-2.6624,-2.665,-2.6663,-2.6667,-2.6736,-2.6669,-2.6673,-2.6675,-2.6676,-2.6867,-2.687,0,0,0,0,0,0,-2.6563,-2.6569,-2.6651,-2.6653,-2.6586,-2.6611,-2.6615,-2.6637,-2.665,-2.665,-2.6626,-2.6622,-2.6658,-2.6663,-2.6668,-2.6757,-2.6673,-2.6677,-2.6679,-2.6864,-2.6868,-2.6871,0,0,0,0,0,0,-2.6561,-2.6571,-2.6649,-2.661,-2.6619,-2.6616,-2.6641,-2.6639,-2.6653,-2.6653,-2.6652,-2.6641,-2.6656,-2.6663,-2.6717,-2.6757,-2.6678,-2.6682,-2.6861,-2.6865,-2.6869,-2.6935,0,0,0,0,0,0,-2.6558,-2.657,-2.66,-2.6611,-2.6621,-2.67,-2.6644,-2.6642,-2.666,-2.6654,-2.6666,-2.6666,-2.6655,-2.6712,-2.6721,-2.6761,-2.6685,-2.6857,-2.6863,-2.6868,-2.6929,-2.6941,-2.6951,0,0,0,0,0,-2.6554,-2.6616,-2.6601,-2.6612,-2.6658,-2.6702,-2.6708,-2.6694,-2.6663,-2.6692,-2.6692,-2.6666,-2.6751,-2.6718,-2.6728,-2.6769,-2.6855,-2.6861,-2.6868,-2.6924,-2.6939,-2.6951,0,0,0,0,0,0,-2.6608,-2.6617,-2.6601,-2.6669,-2.6685,-2.6694,-2.673,-2.671,-2.6734,-2.6728,-2.6709,-2.6712,-2.6771,-2.6775,-2.6738,-2.6842,-2.6798,-2.6806,-2.6838,-2.6851,-2.6862,-2.686,-2.6688,0,0,0,0,0,-2.6628,-2.6664,-2.667,-2.6729,-2.6738,-2.6733,-2.6751,-2.674,-2.6755,-2.6761,-2.6765,-2.6781,-2.6811,-2.6831,-2.6859,-2.693,-2.6931,-2.6963,-2.6974,-2.6983,-2.699,-2.7028,-2.7042,-2.6892,-2.6892,-2.6892,0,0,-2.6669,-2.6679,-2.6703,-2.674,-2.6751,-2.6788,-2.6739,-2.678,-2.6806,-2.6767,-2.682,-2.6823,-2.6838,-2.6902,-2.693,-2.6907,-2.7032,-2.6991,-2.6998,-2.7001,-2.7036,-2.705,-2.7063,-2.6896,-2.6895,-2.6895,0,0,-2.6764,-2.6775,-2.6826,-2.6838,-2.6856,-2.6852,-2.6865,-2.6876,-2.6877,-2.693,-2.6901,-2.6932,-2.6985,-2.6997,-2.701,-2.711,-2.7086,-2.7119,-2.7176,-2.7213,-2.7224,-2.7235,-2.727,-2.7283,-2.7127,-2.7127,-2.7127,0,-2.6813,-2.6868,-2.6854,-2.6897,-2.6914,-2.6882,-2.6933,-2.6945,-2.6971,-2.6983,-2.6957,-2.7023,-2.7031,-2.7097,-2.7121,-2.7133,-2.7145,-2.7118,-2.7224,-2.7234,-2.7244,-2.7277,-2.7291,-2.7131,-2.713,-2.713,-2.7129,0,-2.6927,-2.6966,-2.7005,-2.7032,-2.7053,-2.71,-2.7092,-2.7115,-2.7101,-2.71,-2.7153,-2.7162,-2.7191,-2.7206,-2.7192,-2.7269,-2.7255,-2.7227,-2.7182,-2.7262,-2.7293,-2.7306,-2.7136,-2.7135,-2.7134,-2.7133,0,0,-2.7057,-2.7076,-2.7091,-2.7103,-2.712,-2.7149,-2.7194,-2.7224,-2.7244,-2.7263,-2.7299,-2.7345,-2.7319,-2.7334,-2.7322,-2.7354,-2.7432,-2.7322,-2.7322,-2.7343,-2.7518,-2.7539,-2.7554,-2.7417,-2.7419,-2.7421,-2.7516,0,-2.7151,-2.723,-2.7219,-2.7295,-2.733,-2.73,-2.7339,-2.7353,-2.7353,-2.7382,-2.738,-2.7413,-2.7377,-2.7386,-2.7417,-2.7417,-2.7467,-2.7409,-2.745,-2.7452,-2.7447,-2.757,-2.7592,-2.7682,-2.7528,-2.753,-2.7532,0,-2.7272,-2.7297,-2.7377,-2.7389,-2.7403,-2.7439,-2.7465,-2.7494,-2.7509,-2.7506,-2.7523,-2.7505,-2.7549,-2.7503,-2.7562,-2.7523,-2.7539,-2.7541,-2.7544,-2.7548,-2.7497,-2.7577,-2.771,-2.7724,-2.7551,-2.7549,-2.7548,0,-2.7359,-2.7412,-2.7466,-2.7478,-2.7493,-2.7519,-2.7526,-2.7539,-2.7558,-2.758,-2.7592,-2.7619,-2.7634,-2.7654,-2.7644,-2.7611,-2.7705,-2.7658,-2.7703,-2.7704,-2.7725,-2.7724,-2.7863,-2.7735,-2.7735,-2.7734,-2.7734,0,-2.7465,-2.7516,-2.7506,-2.754,-2.7594,-2.758,-2.7634,-2.7638,-2.765,-2.7682,-2.7657,-2.7688,-2.7672,-2.7702,-2.7693,-2.7744,-2.775,-2.7749,-2.7746,-2.7751,-2.7752,-2.7761,-2.7755,-2.7738,-2.7737,-2.7736,-2.7736,0,-2.7572,-2.7567,-2.7625,-2.7636,-2.7639,-2.7679,-2.7688,-2.7719,-2.7716,-2.7758,-2.7767,-2.7763,-2.7797,-2.7788,-2.7824,-2.7819,-2.7883,-2.7872,-2.7878,-2.7875,-2.7921,-2.7917,-2.8072,-2.8091,-2.7951,-2.7952,-2.7953,0,-2.764,-2.7678,-2.7693,-2.7715,-2.7724,-2.7758,-2.7778,-2.7764,-2.7785,-2.7806,-2.7834,-2.7866,-2.7891,-2.7945,-2.7945,-2.7972,-2.7962,-2.8014,-2.7966,-2.797,-2.7963,-2.7961,-2.7965,-2.8024,-2.8026,-2.8027,-2.8028,0,-2.7763,-2.7759,-2.7788,-2.7817,-2.7842,-2.7863,-2.7882,-2.7901,-2.7889,-2.7913,-2.7948,-2.7968,-2.8005,-2.8037,-2.8062,-2.8068,-2.8046,-2.8043,-2.8055,-2.8061,-2.8063,-2.8063,-2.7904,-2.804,-2.8039,-2.8038,-2.8037,-2.8037,-2.7852,-2.7885,-2.7901,-2.7934,-2.7948,-2.7966,-2.7996,-2.7998,-2.8028,-2.8058,-2.8048,-2.8088,-2.8101,-2.8133,-2.8143,-2.8173,-2.8153,-2.817,-2.8174,-2.8179,-2.8185,-2.8059,-2.8177,-2.8177,-2.8176,-2.8176,-2.8176,0,-2.7973,-2.7982,-2.8014,-2.8042,-2.8068,-2.8047,-2.8067,-2.809,-2.8126,-2.8141,-2.8166,-2.8206,-2.8236,-2.8239,-2.8267,-2.8291,-2.8281,-2.8299,-2.8297,-2.8299,-2.8201,-2.8188,-2.8306,-2.8306,-2.8306,-2.8306,-2.8306,-2.8306,-2.804,-2.8094,-2.8092,-2.8152,-2.8159,-2.82,-2.8213,-2.823,-2.8242,-2.8288,-2.8314,-2.8315,-2.8325,-2.8354,-2.8381,-2.838,-2.8392,-2.8413,-2.8409,-2.8318,-2.8305,-2.8293,-2.8281,-2.8416,-2.8416,-2.8504,-2.8505,-2.8506]}]]